Location: Unspecified
(0.0000°N, 0.0000°E)
Time: 16:40:27
(UTC+00:00)

Vanguard 2 - All Passes

Search period start: 25 August 2016 00:00
Search period end: 04 September 2016 00:00
Orbit: 554 x 2940 km, 32.9° (Epoch: 24 August)

Date Brightness Start Highest point End Pass type
(mag) Time Alt. Az. Time Alt. Az. Time Alt. Az.
25 Aug - 01:22:39 10° NNW 01:33:46 21° NNE 01:45:29 10° ENE visible
25 Aug - 03:32:55 10° NW 03:49:36 45° NNE 04:03:40 10° E visible
25 Aug - 05:45:17 10° WNW 06:02:53 83° SW 06:14:46 10° SE daylight
25 Aug - 08:02:28 10° W 08:13:46 28° SW 08:21:40 10° SSE daylight
25 Aug - 16:54:49 10° SW 16:58:57 45° SE 17:04:44 10° ENE daylight
25 Aug - 19:03:03 10° W 19:08:03 30° NNW 19:15:34 10° NNE visible
25 Aug - 21:16:33 10° NW 21:20:30 13° N 21:25:11 10° NNE visible
25 Aug - 23:31:21 10° NNW 23:36:32 12° N 23:42:19 10° NNE visible
26 Aug - 01:40:51 10° NNW 01:53:35 25° NNE 02:06:46 10° ENE visible
26 Aug - 03:51:08 10° NW 04:08:39 56° NNE 04:23:00 10° ESE visible
26 Aug - 06:04:19 10° WNW 06:21:24 65° SW 06:32:59 10° SE daylight
26 Aug - 08:23:34 10° WSW 08:32:20 20° SW 08:38:56 10° S daylight
26 Aug - 17:12:54 10° SW 17:17:13 86° SE 17:23:33 10° NE daylight
26 Aug - 19:22:33 10° WNW 19:27:05 20° NNW 19:33:17 10° NNE visible
26 Aug - 21:39:02 10° N 21:40:18 10° N 21:41:37 10° N visible
26 Aug - 23:50:05 10° NNW 23:56:45 14° NNE 00:04:16 10° NE visible
27 Aug - 01:58:55 10° NNW 02:13:08 32° NNE 02:27:31 10° E visible
27 Aug - 04:09:29 10° NW 04:27:32 71° NE 04:41:57 10° ESE visible
27 Aug - 06:23:45 10° WNW 06:39:52 50° SW 06:51:00 10° SE daylight
27 Aug - 08:45:50 10° WSW 08:51:08 13° SW 08:55:34 10° S daylight
27 Aug - 15:25:11 10° S 15:27:32 15° SE 15:30:03 10° ESE daylight
27 Aug - 17:31:22 10° WSW 17:35:40 52° NNW 17:41:57 10° NE daylight
27 Aug - 19:42:50 10° NW 19:46:17 14° NNW 19:50:31 10° NNE visible
28 Aug - 00:08:16 10° NNW 00:16:48 17° NNE 00:26:31 10° NE visible
28 Aug - 02:16:57 10° NNW 02:32:24 40° NNE 02:47:42 10° E visible
28 Aug - 04:28:01 10° NW 04:46:16 87° NE 05:00:35 10° SE visible
28 Aug - 06:43:39 10° W 06:58:22 38° SW 07:08:50 10° SSE daylight
28 Aug - 15:42:22 10° SSW 15:45:51 29° SE 15:49:51 10° E daylight
28 Aug - 17:50:16 10° W 17:54:19 30° NNW 17:59:57 10° NNE daylight
29 Aug - 00:26:13 10° NNW 00:36:35 21° NNE 00:48:27 10° ENE visible
29 Aug - 02:35:03 10° NW 02:51:27 50° NNE 03:07:23 10° ESE visible
29 Aug - 04:46:48 10° WNW 05:04:55 76° SW 05:19:00 10° SE visible
29 Aug - 07:04:09 10° W 07:17:00 28° SW 07:26:30 10° SSE daylight
29 Aug - 16:00:14 10° SW 16:04:08 60° SE 16:08:50 10° ENE daylight
29 Aug - 18:09:45 10° WNW 18:13:09 18° NNW 18:17:30 10° NNE daylight
30 Aug - 00:44:05 10° NNW 00:56:04 27° NNE 01:09:48 10° E visible
30 Aug - 02:53:14 10° NW 03:10:20 63° NE 03:26:38 10° ESE visible
30 Aug - 05:05:54 10° WNW 05:23:31 60° SW 05:37:11 10° SE visible
30 Aug - 07:25:23 10° WSW 07:35:51 21° SW 07:43:57 10° S daylight
30 Aug - 14:13:16 10° SSE 14:14:08 11° SSE 14:14:59 10° SE daylight
30 Aug - 16:18:33 10° WSW 16:22:28 65° NW 16:27:19 10° NE daylight
30 Aug - 18:30:30 10° NW 18:32:09 11° NNW 18:33:59 10° N visible
30 Aug - 22:55:41 10° N 23:00:23 12° NNE 23:05:41 10° NE visible
31 Aug - 01:01:58 10° NNW 01:15:17 34° NNE 01:30:32 10° E visible
31 Aug - 03:11:35 10° NW 03:29:06 78° NE 03:45:32 10° ESE visible
31 Aug - 05:25:25 10° WNW 05:42:09 47° SW 05:55:13 10° SE visible
31 Aug - 07:47:32 10° WSW 07:54:57 15° SSW 08:01:04 10° S daylight
31 Aug - 14:29:32 10° SSW 14:32:42 20° SSE 14:35:44 10° E daylight
31 Aug - 16:37:20 10° W 16:40:57 32° NNW 16:45:21 10° NNE daylight
31 Aug - 23:12:53 10° N 23:20:06 16° NNE 23:28:37 10° ENE visible
01 Sep - 01:19:54 10° NNW 01:34:16 44° NE 01:50:39 10° E visible
01 Sep - 03:30:08 10° NW 03:47:48 86° SW 04:04:09 10° SE visible
01 Sep - 05:45:25 10° W 06:00:53 37° SW 06:13:06 10° SSE daylight
01 Sep - 08:11:16 10° SW 08:14:21 11° SSW 08:17:09 10° SSW daylight
01 Sep - 14:47:10 10° SW 14:51:08 41° SE 14:54:56 10° ENE daylight
01 Sep - 16:56:45 10° WNW 16:59:35 17° NNW 17:02:51 10° NNE daylight
01 Sep - 23:30:22 10° NNW 23:39:31 21° NNE 23:50:45 10° ENE visible
02 Sep - 01:37:56 10° NW 01:53:04 55° NE 02:10:16 10° ESE visible
02 Sep - 03:48:57 10° WNW 04:06:29 70° SW 04:22:31 10° SE visible
02 Sep - 06:06:02 10° W 06:19:48 28° SSW 06:30:51 10° SSE daylight
02 Sep - 13:00:08 10° SSE 13:00:32 10° SSE 13:00:55 10° SSE daylight
02 Sep - 15:05:20 10° SW 15:09:29 90° ESE 15:13:33 10° NE daylight
02 Sep - 23:47:58 10° NNW 23:58:39 27° NNE 00:12:07 10° E visible
03 Sep - 01:56:06 10° NW 02:11:47 69° NE 02:29:28 10° ESE visible
03 Sep - 04:08:07 10° WNW 04:25:13 56° SW 04:40:42 10° SE visible
03 Sep - 06:27:19 10° WSW 06:38:58 22° SSW 06:48:31 10° SSE daylight
03 Sep - 13:15:51 10° SSW 13:19:21 18° SSE 13:22:17 10° ESE daylight
03 Sep - 15:23:58 10° WSW 15:27:50 41° NW 15:31:43 10° NE daylight
03 Sep - 22:02:58 10° NNE 22:04:17 10° NNE 22:05:39 10° NNE visible
